Data supplied by UK-AIR on 15/5/2019
All Data GMT hour ending  NB:  Upto 18/07/2018 PM10 were measured with a TEOM FDMS, from 18/07/2018 PM10 were measured with a FIDAS
Status: R =Ratified P=Provisional,P*=As supplied
,,Lough Navar,,,,,,,,,,,,,,,,,,,,,,,
Date,time,"PM<sub>10</sub> particulate matter (Hourly measured)",status,unit,"Non-volatile PM<sub>10</sub> (Hourly measured)",status,unit,"Ozone",status,unit,"PM<sub>2.5</sub> particulate matter (Hourly measured)",status,unit,"Volatile PM<sub>10</sub> (Hourly measured)",status,unit
 
01-01-2018,01:00,4.900,R,ugm-3 (TEOM FDMS),4.900,R,ugm-3 (TEOM FDMS),67.75599,R,ugm-3,,,,0.000,R,ugm-3 (TEOM FDMS)
01-01-2018,02:00,4.100,R,ugm-3 (TEOM FDMS),5.400,R,ugm-3 (TEOM FDMS),68.45594,R,ugm-3,,,,-1.300,R,ugm-3 (TEOM FDMS)
01-01-2018,03:00,5.000,R,ugm-3 (TEOM FDMS),3.800,R,ugm-3 (TEOM FDMS),67.03853,R,ugm-3,,,,1.200,R,ugm-3 (TEOM FDMS)
01-01-2018,04:00,6.300,R,ugm-3 (TEOM FDMS),5.900,R,ugm-3 (TEOM FDMS),66.61855,R,ugm-3,,,,0.400,R,ugm-3 (TEOM FDMS)
01-01-2018,05:00,4.800,R,ugm-3 (TEOM FDMS),4.900,R,ugm-3 (TEOM FDMS),70.76581,R,ugm-3,,,,-0.100,R,ugm-3 (TEOM FDMS)
01-01-2018,06:00,6.400,R,ugm-3 (TEOM FDMS),4.600,R,ugm-3 (TEOM FDMS),66.72355,R,ugm-3,,,,1.800,R,ugm-3 (TEOM FDMS)
01-01-2018,07:00,5.000,R,ugm-3 (TEOM FDMS),3.100,R,ugm-3 (TEOM FDMS),60.94889,R,ugm-3,,,,1.900,R,ugm-3 (TEOM FDMS)
01-01-2018,08:00,5.400,R,ugm-3 (TEOM FDMS),4.500,R,ugm-3 (TEOM FDMS),63.36374,R,ugm-3,,,,0.900,R,ugm-3 (TEOM FDMS)
01-01-2018,09:00,6.400,R,ugm-3 (TEOM FDMS),6.600,R,ugm-3 (TEOM FDMS),73.07567,R,ugm-3,,,,-0.200,R,ugm-3 (TEOM FDMS)
01-01-2018,10:00,4.200,R,ugm-3 (TEOM FDMS),4.900,R,ugm-3 (TEOM FDMS),84.25751,R,ugm-3,,,,-0.700,R,ugm-3 (TEOM FDMS)
01-01-2018,11:00,8.700,R,ugm-3 (TEOM FDMS),11.600,R,ugm-3 (TEOM FDMS),79.79527,R,ugm-3,,,,-2.900,R,ugm-3 (TEOM FDMS)
01-01-2018,12:00,7.900,R,ugm-3 (TEOM FDMS),8.600,R,ugm-3 (TEOM FDMS),78.58784,R,ugm-3,,,,-0.700,R,ugm-3 (TEOM FDMS)
01-01-2018,13:00,4.000,R,ugm-3 (TEOM FDMS),5.800,R,ugm-3 (TEOM FDMS),78.53535,R,ugm-3,,,,-1.800,R,ugm-3 (TEOM FDMS)
01-01-2018,14:00,3.100,R,ugm-3 (TEOM FDMS),6.700,R,ugm-3 (TEOM FDMS),78.11537,R,ugm-3,,,,-3.600,R,ugm-3 (TEOM FDMS)
01-01-2018,15:00,1.500,R,ugm-3 (TEOM FDMS),5.600,R,ugm-3 (TEOM FDMS),74.12561,R,ugm-3,,,,-4.100,R,ugm-3 (TEOM FDMS)
01-01-2018,16:00,2.700,R,ugm-3 (TEOM FDMS),4.900,R,ugm-3 (TEOM FDMS),73.60064,R,ugm-3,,,,-2.200,R,ugm-3 (TEOM FDMS)
01-01-2018,17:00,7.400,R,ugm-3 (TEOM FDMS),7.700,R,ugm-3 (TEOM FDMS),69.61087,R,ugm-3,,,,-0.300,R,ugm-3 (TEOM FDMS)
01-01-2018,18:00,5.700,R,ugm-3 (TEOM FDMS),6.500,R,ugm-3 (TEOM FDMS),70.71331,R,ugm-3,,,,-0.800,R,ugm-3 (TEOM FDMS)
01-01-2018,19:00,13.800,R,ugm-3 (TEOM FDMS),14.300,R,ugm-3 (TEOM FDMS),74.28310,R,ugm-3,,,,-0.500,R,ugm-3 (TEOM FDMS)
01-01-2018,20:00,16.700,R,ugm-3 (TEOM FDMS),17.100,R,ugm-3 (TEOM FDMS),70.87080,R,ugm-3,,,,-0.400,R,ugm-3 (TEOM FDMS)
01-01-2018,21:00,13.800,R,ugm-3 (TEOM FDMS),14.800,R,ugm-3 (TEOM FDMS),57.79907,R,ugm-3,,,,-1.000,R,ugm-3 (TEOM FDMS)
01-01-2018,22:00,13.200,R,ugm-3 (TEOM FDMS),13.600,R,ugm-3 (TEOM FDMS),66.46106,R,ugm-3,,,,-0.400,R,ugm-3 (TEOM FDMS)
01-01-2018,23:00,14.900,R,ugm-3 (TEOM FDMS),14.400,R,ugm-3 (TEOM FDMS),32.07560,R,ugm-3,,,,0.500,R,ugm-3 (TEOM FDMS)
01-01-2018,24:00,10.300,R,ugm-3 (TEOM FDMS),9.800,R,ugm-3 (TEOM FDMS),21.05125,R,ugm-3,,,,0.500,R,ugm-3 (TEOM FDMS)
02-01-2018,01:00,8.500,R,ugm-3 (TEOM FDMS),7.100,R,ugm-3 (TEOM FDMS),20.43879,R,ugm-3,,,,1.400,R,ugm-3 (TEOM FDMS)
02-01-2018,02:00,6.700,R,ugm-3 (TEOM FDMS),4.600,R,ugm-3 (TEOM FDMS),27.99834,R,ugm-3,,,,2.100,R,ugm-3 (TEOM FDMS)
02-01-2018,03:00,4.100,R,ugm-3 (TEOM FDMS),4.500,R,ugm-3 (TEOM FDMS),19.47635,R,ugm-3,,,,-0.400,R,ugm-3 (TEOM FDMS)
02-01-2018,04:00,3.500,R,ugm-3 (TEOM FDMS),0.100,R,ugm-3 (TEOM FDMS),40.05513,R,ugm-3,,,,3.400,R,ugm-3 (TEOM FDMS)
02-01-2018,05:00,6.200,R,ugm-3 (TEOM FDMS),5.200,R,ugm-3 (TEOM FDMS),46.66973,R,ugm-3,,,,1.000,R,ugm-3 (TEOM FDMS)
02-01-2018,06:00,4.600,R,ugm-3 (TEOM FDMS),4.700,R,ugm-3 (TEOM FDMS),54.85925,R,ugm-3,,,,-0.100,R,ugm-3 (TEOM FDMS)
02-01-2018,07:00,7.500,R,ugm-3 (TEOM FDMS),4.600,R,ugm-3 (TEOM FDMS),66.98603,R,ugm-3,,,,2.900,R,ugm-3 (TEOM FDMS)
02-01-2018,08:00,4.500,R,ugm-3 (TEOM FDMS),4.000,R,ugm-3 (TEOM FDMS),67.51100,R,ugm-3,,,,0.500,R,ugm-3 (TEOM FDMS)
02-01-2018,09:00,3.000,R,ugm-3 (TEOM FDMS),2.000,R,ugm-3 (TEOM FDMS),65.83110,R,ugm-3,,,,1.000,R,ugm-3 (TEOM FDMS)
02-01-2018,10:00,4.000,R,ugm-3 (TEOM FDMS),6.100,R,ugm-3 (TEOM FDMS),72.81318,R,ugm-3,,,,-2.100,R,ugm-3 (TEOM FDMS)
02-01-2018,11:00,5.900,R,ugm-3 (TEOM FDMS),4.600,R,ugm-3 (TEOM FDMS),84.15251,R,ugm-3,,,,1.300,R,ugm-3 (TEOM FDMS)
02-01-2018,12:00,8.700,R,ugm-3 (TEOM FDMS),7.800,R,ugm-3 (TEOM FDMS),84.20501,R,ugm-3,,,,0.900,R,ugm-3 (TEOM FDMS)
02-01-2018,13:00,12.800,R,ugm-3 (TEOM FDMS),10.300,R,ugm-3 (TEOM FDMS),68.87592,R,ugm-3,,,,2.500,R,ugm-3 (TEOM FDMS)
02-01-2018,14:00,11.200,R,ugm-3 (TEOM FDMS),12.100,R,ugm-3 (TEOM FDMS),69.40089,R,ugm-3,,,,-0.900,R,ugm-3 (TEOM FDMS)
02-01-2018,15:00,14.600,R,ugm-3 (TEOM FDMS),12.300,R,ugm-3 (TEOM FDMS),71.02829,R,ugm-3,,,,2.300,R,ugm-3 (TEOM FDMS)
02-01-2018,16:00,7.500,R,ugm-3 (TEOM FDMS),6.500,R,ugm-3 (TEOM FDMS),70.18834,R,ugm-3,,,,1.000,R,ugm-3 (TEOM FDMS)
02-01-2018,17:00,11.700,R,ugm-3 (TEOM FDMS),9.500,R,ugm-3 (TEOM FDMS),76.12049,R,ugm-3,,,,2.200,R,ugm-3 (TEOM FDMS)
02-01-2018,18:00,,,,,,,70.50332,R,ugm-3,,,,,,
02-01-2018,19:00,,,,,,,68.61343,R,ugm-3,,,,,,
02-01-2018,20:00,,,,,,,77.69540,R,ugm-3,,,,,,
02-01-2018,21:00,,,,,,,84.04752,R,ugm-3,,,,,,
02-01-2018,22:00,,,,,,,86.72486,R,ugm-3,,,,,,
02-01-2018,23:00,11.500,R,ugm-3 (TEOM FDMS),11.700,R,ugm-3 (TEOM FDMS),83.62754,R,ugm-3,,,,-0.200,R,ugm-3 (TEOM FDMS)
02-01-2018,24:00,11.300,R,ugm-3 (TEOM FDMS),10.600,R,ugm-3 (TEOM FDMS),77.59040,R,ugm-3,,,,0.700,R,ugm-3 (TEOM FDMS)
03-01-2018,01:00,8.700,R,ugm-3 (TEOM FDMS),8.500,R,ugm-3 (TEOM FDMS),77.41541,R,ugm-3,,,,0.200,R,ugm-3 (TEOM FDMS)
03-01-2018,02:00,4.200,R,ugm-3 (TEOM FDMS),6.400,R,ugm-3 (TEOM FDMS),79.44529,R,ugm-3,,,,-2.200,R,ugm-3 (TEOM FDMS)
03-01-2018,03:00,7.200,R,ugm-3 (TEOM FDMS),6.800,R,ugm-3 (TEOM FDMS),80.00526,R,ugm-3,,,,0.400,R,ugm-3 (TEOM FDMS)
03-01-2018,04:00,5.500,R,ugm-3 (TEOM FDMS),6.100,R,ugm-3 (TEOM FDMS),79.27030,R,ugm-3,,,,-0.600,R,ugm-3 (TEOM FDMS)
03-01-2018,05:00,6.700,R,ugm-3 (TEOM FDMS),8.400,R,ugm-3 (TEOM FDMS),77.48541,R,ugm-3,,,,-1.700,R,ugm-3 (TEOM FDMS)
03-01-2018,06:00,7.200,R,ugm-3 (TEOM FDMS),8.300,R,ugm-3 (TEOM FDMS),76.64546,R,ugm-3,,,,-1.100,R,ugm-3 (TEOM FDMS)
03-01-2018,07:00,7.600,R,ugm-3 (TEOM FDMS),10.400,R,ugm-3 (TEOM FDMS),80.74022,R,ugm-3,,,,-2.800,R,ugm-3 (TEOM FDMS)
03-01-2018,08:00,9.800,R,ugm-3 (TEOM FDMS),11.400,R,ugm-3 (TEOM FDMS),75.54302,R,ugm-3,,,,-1.600,R,ugm-3 (TEOM FDMS)
03-01-2018,09:00,8.900,R,ugm-3 (TEOM FDMS),10.200,R,ugm-3 (TEOM FDMS),82.94508,R,ugm-3,,,,-1.300,R,ugm-3 (TEOM FDMS)
03-01-2018,10:00,6.900,R,ugm-3 (TEOM FDMS),7.400,R,ugm-3 (TEOM FDMS),76.64546,R,ugm-3,,,,-0.500,R,ugm-3 (TEOM FDMS)
03-01-2018,11:00,6.700,R,ugm-3 (TEOM FDMS),8.200,R,ugm-3 (TEOM FDMS),76.01550,R,ugm-3,,,,-1.500,R,ugm-3 (TEOM FDMS)
03-01-2018,12:00,6.800,R,ugm-3 (TEOM FDMS),8.300,R,ugm-3 (TEOM FDMS),75.91050,R,ugm-3,,,,-1.500,R,ugm-3 (TEOM FDMS)
03-01-2018,13:00,8.300,R,ugm-3 (TEOM FDMS),10.600,R,ugm-3 (TEOM FDMS),76.27798,R,ugm-3,,,,-2.300,R,ugm-3 (TEOM FDMS)
03-01-2018,14:00,13.400,R,ugm-3 (TEOM FDMS),13.400,R,ugm-3 (TEOM FDMS),78.01038,R,ugm-3,,,,0.000,R,ugm-3 (TEOM FDMS)
03-01-2018,15:00,11.700,R,ugm-3 (TEOM FDMS),10.700,R,ugm-3 (TEOM FDMS),79.53279,R,ugm-3,,,,1.000,R,ugm-3 (TEOM FDMS)
03-01-2018,16:00,13.500,R,ugm-3 (TEOM FDMS),13.500,R,ugm-3 (TEOM FDMS),79.48029,R,ugm-3,,,,0.000,R,ugm-3 (TEOM FDMS)
03-01-2018,17:00,16.900,R,ugm-3 (TEOM FDMS),17.600,R,ugm-3 (TEOM FDMS),79.06031,R,ugm-3,,,,-0.700,R,ugm-3 (TEOM FDMS)
03-01-2018,18:00,13.500,R,ugm-3 (TEOM FDMS),14.000,R,ugm-3 (TEOM FDMS),78.58784,R,ugm-3,,,,-0.500,R,ugm-3 (TEOM FDMS)
03-01-2018,19:00,9.100,R,ugm-3 (TEOM FDMS),9.200,R,ugm-3 (TEOM FDMS),75.96300,R,ugm-3,,,,-0.100,R,ugm-3 (TEOM FDMS)
03-01-2018,20:00,12.400,R,ugm-3 (TEOM FDMS),12.100,R,ugm-3 (TEOM FDMS),74.80807,R,ugm-3,,,,0.300,R,ugm-3 (TEOM FDMS)
03-01-2018,21:00,13.500,R,ugm-3 (TEOM FDMS),12.100,R,ugm-3 (TEOM FDMS),69.13840,R,ugm-3,,,,1.400,R,ugm-3 (TEOM FDMS)
03-01-2018,22:00,11.200,R,ugm-3 (TEOM FDMS),12.200,R,ugm-3 (TEOM FDMS),65.93609,R,ugm-3,,,,-1.000,R,ugm-3 (TEOM FDMS)
03-01-2018,23:00,11.200,R,ugm-3 (TEOM FDMS),10.000,R,ugm-3 (TEOM FDMS),65.93609,R,ugm-3,,,,1.200,R,ugm-3 (TEOM FDMS)
03-01-2018,24:00,12.000,R,ugm-3 (TEOM FDMS),9.900,R,ugm-3 (TEOM FDMS),64.57117,R,ugm-3,,,,2.100,R,ugm-3 (TEOM FDMS)
04-01-2018,01:00,6.700,R,ugm-3 (TEOM FDMS),7.800,R,ugm-3 (TEOM FDMS),55.22673,R,ugm-3,,,,-1.100,R,ugm-3 (TEOM FDMS)
04-01-2018,02:00,16.200,R,ugm-3 (TEOM FDMS),10.000,R,ugm-3 (TEOM FDMS),38.28773,R,ugm-3,,,,6.200,R,ugm-3 (TEOM FDMS)
04-01-2018,03:00,16.400,R,ugm-3 (TEOM FDMS),13.000,R,ugm-3 (TEOM FDMS),34.70044,R,ugm-3,,,,3.400,R,ugm-3 (TEOM FDMS)
04-01-2018,04:00,11.800,R,ugm-3 (TEOM FDMS),8.900,R,ugm-3 (TEOM FDMS),63.73122,R,ugm-3,,,,2.900,R,ugm-3 (TEOM FDMS)
04-01-2018,05:00,8.000,R,ugm-3 (TEOM FDMS),5.900,R,ugm-3 (TEOM FDMS),80.84521,R,ugm-3,,,,2.100,R,ugm-3 (TEOM FDMS)
04-01-2018,06:00,3.200,R,ugm-3 (TEOM FDMS),-0.900,R,ugm-3 (TEOM FDMS),81.58017,R,ugm-3,,,,4.100,R,ugm-3 (TEOM FDMS)
04-01-2018,07:00,2.200,R,ugm-3 (TEOM FDMS),-2.200,R,ugm-3 (TEOM FDMS),81.31768,R,ugm-3,,,,4.400,R,ugm-3 (TEOM FDMS)
04-01-2018,08:00,-2.300,R,ugm-3 (TEOM FDMS),-4.700,R,ugm-3 (TEOM FDMS),77.80039,R,ugm-3,,,,2.400,R,ugm-3 (TEOM FDMS)
04-01-2018,09:00,-3.500,R,ugm-3 (TEOM FDMS),-4.600,R,ugm-3 (TEOM FDMS),75.43803,R,ugm-3,,,,1.100,R,ugm-3 (TEOM FDMS)
04-01-2018,10:00,,,,,,,72.91818,R,ugm-3,,,,,,
04-01-2018,11:00,,,,,,,73.02317,R,ugm-3,,,,,,
04-01-2018,12:00,,,,,,,85.25495,R,ugm-3,,,,,,
04-01-2018,13:00,1.300,R,ugm-3 (TEOM FDMS),4.500,R,ugm-3 (TEOM FDMS),84.67748,R,ugm-3,,,,-3.200,R,ugm-3 (TEOM FDMS)
04-01-2018,14:00,1.900,R,ugm-3 (TEOM FDMS),4.100,R,ugm-3 (TEOM FDMS),81.89515,R,ugm-3,,,,-2.200,R,ugm-3 (TEOM FDMS)
04-01-2018,15:00,2.100,R,ugm-3 (TEOM FDMS),2.800,R,ugm-3 (TEOM FDMS),76.69795,R,ugm-3,,,,-0.700,R,ugm-3 (TEOM FDMS)
04-01-2018,16:00,5.000,R,ugm-3 (TEOM FDMS),5.000,R,ugm-3 (TEOM FDMS),71.18578,R,ugm-3,,,,0.000,R,ugm-3 (TEOM FDMS)
04-01-2018,17:00,4.400,R,ugm-3 (TEOM FDMS),5.400,R,ugm-3 (TEOM FDMS),65.04365,R,ugm-3,,,,-1.000,R,ugm-3 (TEOM FDMS)
04-01-2018,18:00,7.700,R,ugm-3 (TEOM FDMS),4.800,R,ugm-3 (TEOM FDMS),46.72223,R,ugm-3,,,,2.900,R,ugm-3 (TEOM FDMS)
04-01-2018,19:00,6.400,R,ugm-3 (TEOM FDMS),3.600,R,ugm-3 (TEOM FDMS),59.11150,R,ugm-3,,,,2.800,R,ugm-3 (TEOM FDMS)
04-01-2018,20:00,12.900,R,ugm-3 (TEOM FDMS),12.200,R,ugm-3 (TEOM FDMS),51.39445,R,ugm-3,,,,0.700,R,ugm-3 (TEOM FDMS)
04-01-2018,21:00,17.700,R,ugm-3 (TEOM FDMS),16.200,R,ugm-3 (TEOM FDMS),38.90019,R,ugm-3,,,,1.500,R,ugm-3 (TEOM FDMS)
04-01-2018,22:00,10.900,R,ugm-3 (TEOM FDMS),8.000,R,ugm-3 (TEOM FDMS),54.96424,R,ugm-3,,,,2.900,R,ugm-3 (TEOM FDMS)
04-01-2018,23:00,10.000,R,ugm-3 (TEOM FDMS),11.400,R,ugm-3 (TEOM FDMS),54.38678,R,ugm-3,,,,-1.400,R,ugm-3 (TEOM FDMS)
04-01-2018,24:00,11.600,R,ugm-3 (TEOM FDMS),9.300,R,ugm-3 (TEOM FDMS),51.55195,R,ugm-3,,,,2.300,R,ugm-3 (TEOM FDMS)
05-01-2018,01:00,7.800,R,ugm-3 (TEOM FDMS),5.400,R,ugm-3 (TEOM FDMS),61.03638,R,ugm-3,,,,2.400,R,ugm-3 (TEOM FDMS)
05-01-2018,02:00,1.200,R,ugm-3 (TEOM FDMS),2.100,R,ugm-3 (TEOM FDMS),37.30779,R,ugm-3,,,,-0.900,R,ugm-3 (TEOM FDMS)
05-01-2018,03:00,3.600,R,ugm-3 (TEOM FDMS),0.900,R,ugm-3 (TEOM FDMS),28.40082,R,ugm-3,,,,2.700,R,ugm-3 (TEOM FDMS)
05-01-2018,04:00,1.800,R,ugm-3 (TEOM FDMS),2.300,R,ugm-3 (TEOM FDMS),54.91175,R,ugm-3,,,,-0.500,R,ugm-3 (TEOM FDMS)
05-01-2018,05:00,0.500,R,ugm-3 (TEOM FDMS),2.400,R,ugm-3 (TEOM FDMS),32.49557,R,ugm-3,,,,-1.900,R,ugm-3 (TEOM FDMS)
05-01-2018,06:00,1.600,R,ugm-3 (TEOM FDMS),-2.200,R,ugm-3 (TEOM FDMS),25.30350,R,ugm-3,,,,3.800,R,ugm-3 (TEOM FDMS)
05-01-2018,07:00,1.400,R,ugm-3 (TEOM FDMS),0.700,R,ugm-3 (TEOM FDMS),22.10119,R,ugm-3,,,,0.700,R,ugm-3 (TEOM FDMS)
05-01-2018,08:00,1.600,R,ugm-3 (TEOM FDMS),1.000,R,ugm-3 (TEOM FDMS),20.42129,R,ugm-3,,,,0.600,R,ugm-3 (TEOM FDMS)
05-01-2018,09:00,1.800,R,ugm-3 (TEOM FDMS),1.500,R,ugm-3 (TEOM FDMS),24.46355,R,ugm-3,,,,0.300,R,ugm-3 (TEOM FDMS)
05-01-2018,10:00,4.500,R,ugm-3 (TEOM FDMS),2.900,R,ugm-3 (TEOM FDMS),17.79645,R,ugm-3,,,,1.600,R,ugm-3 (TEOM FDMS)
05-01-2018,11:00,3.000,R,ugm-3 (TEOM FDMS),4.300,R,ugm-3 (TEOM FDMS),17.21898,R,ugm-3,,,,-1.300,R,ugm-3 (TEOM FDMS)
05-01-2018,12:00,3.300,R,ugm-3 (TEOM FDMS),5.400,R,ugm-3 (TEOM FDMS),52.18191,R,ugm-3,,,,-2.100,R,ugm-3 (TEOM FDMS)
05-01-2018,13:00,5.300,R,ugm-3 (TEOM FDMS),8.400,R,ugm-3 (TEOM FDMS),58.11406,R,ugm-3,,,,-3.100,R,ugm-3 (TEOM FDMS)
05-01-2018,14:00,4.500,R,ugm-3 (TEOM FDMS),7.300,R,ugm-3 (TEOM FDMS),52.07691,R,ugm-3,,,,-2.800,R,ugm-3 (TEOM FDMS)
05-01-2018,15:00,6.200,R,ugm-3 (TEOM FDMS),6.900,R,ugm-3 (TEOM FDMS),53.70432,R,ugm-3,,,,-0.700,R,ugm-3 (TEOM FDMS)
05-01-2018,16:00,3.600,R,ugm-3 (TEOM FDMS),5.800,R,ugm-3 (TEOM FDMS),46.24976,R,ugm-3,,,,-2.200,R,ugm-3 (TEOM FDMS)
05-01-2018,17:00,5.900,R,ugm-3 (TEOM FDMS),6.000,R,ugm-3 (TEOM FDMS),48.82211,R,ugm-3,,,,-0.100,R,ugm-3 (TEOM FDMS)
05-01-2018,18:00,0.600,R,ugm-3 (TEOM FDMS),3.800,R,ugm-3 (TEOM FDMS),49.87204,R,ugm-3,,,,-3.200,R,ugm-3 (TEOM FDMS)
05-01-2018,19:00,3.200,R,ugm-3 (TEOM FDMS),4.100,R,ugm-3 (TEOM FDMS),52.18191,R,ugm-3,,,,-0.900,R,ugm-3 (TEOM FDMS)
05-01-2018,20:00,2.000,R,ugm-3 (TEOM FDMS),3.700,R,ugm-3 (TEOM FDMS),47.82467,R,ugm-3,,,,-1.700,R,ugm-3 (TEOM FDMS)
05-01-2018,21:00,4.500,R,ugm-3 (TEOM FDMS),7.400,R,ugm-3 (TEOM FDMS),47.40469,R,ugm-3,,,,-2.900,R,ugm-3 (TEOM FDMS)
05-01-2018,22:00,10.900,R,ugm-3 (TEOM FDMS),12.300,R,ugm-3 (TEOM FDMS),43.83490,R,ugm-3,,,,-1.400,R,ugm-3 (TEOM FDMS)
05-01-2018,23:00,9.100,R,ugm-3 (TEOM FDMS),10.400,R,ugm-3 (TEOM FDMS),38.63771,R,ugm-3,,,,-1.300,R,ugm-3 (TEOM FDMS)
05-01-2018,24:00,12.600,R,ugm-3 (TEOM FDMS),14.100,R,ugm-3 (TEOM FDMS),36.85282,R,ugm-3,,,,-1.500,R,ugm-3 (TEOM FDMS)
06-01-2018,01:00,16.500,R,ugm-3 (TEOM FDMS),17.900,R,ugm-3 (TEOM FDMS),49.34708,R,ugm-3,,,,-1.400,R,ugm-3 (TEOM FDMS)
06-01-2018,02:00,13.600,R,ugm-3 (TEOM FDMS),14.700,R,ugm-3 (TEOM FDMS),56.83663,R,ugm-3,,,,-1.100,R,ugm-3 (TEOM FDMS)
06-01-2018,03:00,6.900,R,ugm-3 (TEOM FDMS),8.300,R,ugm-3 (TEOM FDMS),50.81699,R,ugm-3,,,,-1.400,R,ugm-3 (TEOM FDMS)
06-01-2018,04:00,3.100,R,ugm-3 (TEOM FDMS),5.000,R,ugm-3 (TEOM FDMS),43.67741,R,ugm-3,,,,-1.900,R,ugm-3 (TEOM FDMS)
06-01-2018,05:00,-2.000,R,ugm-3 (TEOM FDMS),0.400,R,ugm-3 (TEOM FDMS),44.93734,R,ugm-3,,,,-2.400,R,ugm-3 (TEOM FDMS)
06-01-2018,06:00,1.800,R,ugm-3 (TEOM FDMS),3.400,R,ugm-3 (TEOM FDMS),46.19726,R,ugm-3,,,,-1.600,R,ugm-3 (TEOM FDMS)
06-01-2018,07:00,3.600,R,ugm-3 (TEOM FDMS),4.900,R,ugm-3 (TEOM FDMS),45.61980,R,ugm-3,,,,-1.300,R,ugm-3 (TEOM FDMS)
06-01-2018,08:00,1.200,R,ugm-3 (TEOM FDMS),3.600,R,ugm-3 (TEOM FDMS),49.71455,R,ugm-3,,,,-2.400,R,ugm-3 (TEOM FDMS)
06-01-2018,09:00,2.800,R,ugm-3 (TEOM FDMS),4.300,R,ugm-3 (TEOM FDMS),52.54939,R,ugm-3,,,,-1.500,R,ugm-3 (TEOM FDMS)
06-01-2018,10:00,2.900,R,ugm-3 (TEOM FDMS),4.400,R,ugm-3 (TEOM FDMS),55.80419,R,ugm-3,,,,-1.500,R,ugm-3 (TEOM FDMS)
06-01-2018,11:00,4.800,R,ugm-3 (TEOM FDMS),7.000,R,ugm-3 (TEOM FDMS),60.05644,R,ugm-3,,,,-2.200,R,ugm-3 (TEOM FDMS)
06-01-2018,12:00,4.800,R,ugm-3 (TEOM FDMS),7.600,R,ugm-3 (TEOM FDMS),60.16143,R,ugm-3,,,,-2.800,R,ugm-3 (TEOM FDMS)
06-01-2018,13:00,5.000,R,ugm-3 (TEOM FDMS),7.600,R,ugm-3 (TEOM FDMS),61.42136,R,ugm-3,,,,-2.600,R,ugm-3 (TEOM FDMS)
06-01-2018,14:00,7.600,R,ugm-3 (TEOM FDMS),8.000,R,ugm-3 (TEOM FDMS),66.61855,R,ugm-3,,,,-0.400,R,ugm-3 (TEOM FDMS)
06-01-2018,15:00,6.900,R,ugm-3 (TEOM FDMS),5.300,R,ugm-3 (TEOM FDMS),67.82598,R,ugm-3,,,,1.600,R,ugm-3 (TEOM FDMS)
06-01-2018,16:00,5.800,R,ugm-3 (TEOM FDMS),6.700,R,ugm-3 (TEOM FDMS),61.57885,R,ugm-3,,,,-0.900,R,ugm-3 (TEOM FDMS)
06-01-2018,17:00,6.900,R,ugm-3 (TEOM FDMS),7.300,R,ugm-3 (TEOM FDMS),60.37142,R,ugm-3,,,,-0.400,R,ugm-3 (TEOM FDMS)
06-01-2018,18:00,4.200,R,ugm-3 (TEOM FDMS),5.600,R,ugm-3 (TEOM FDMS),56.27666,R,ugm-3,,,,-1.400,R,ugm-3 (TEOM FDMS)
06-01-2018,19:00,6.500,R,ugm-3 (TEOM FDMS),7.300,R,ugm-3 (TEOM FDMS),38.27023,R,ugm-3,,,,-0.800,R,ugm-3 (TEOM FDMS)
06-01-2018,20:00,8.100,R,ugm-3 (TEOM FDMS),7.600,R,ugm-3 (TEOM FDMS),27.14089,R,ugm-3,,,,0.500,R,ugm-3 (TEOM FDMS)
06-01-2018,21:00,7.800,R,ugm-3 (TEOM FDMS),8.400,R,ugm-3 (TEOM FDMS),26.51093,R,ugm-3,,,,-0.600,R,ugm-3 (TEOM FDMS)
06-01-2018,22:00,10.400,R,ugm-3 (TEOM FDMS),11.100,R,ugm-3 (TEOM FDMS),19.00387,R,ugm-3,,,,-0.700,R,ugm-3 (TEOM FDMS)
06-01-2018,23:00,11.700,R,ugm-3 (TEOM FDMS),12.700,R,ugm-3 (TEOM FDMS),14.38415,R,ugm-3,,,,-1.000,R,ugm-3 (TEOM FDMS)
06-01-2018,24:00,17.500,R,ugm-3 (TEOM FDMS),15.100,R,ugm-3 (TEOM FDMS),13.33421,R,ugm-3,,,,2.400,R,ugm-3 (TEOM FDMS)
07-01-2018,01:00,4.300,R,ugm-3 (TEOM FDMS),3.400,R,ugm-3 (TEOM FDMS),14.27915,R,ugm-3,,,,0.900,R,ugm-3 (TEOM FDMS)
07-01-2018,02:00,4.900,R,ugm-3 (TEOM FDMS),3.000,R,ugm-3 (TEOM FDMS),9.30945,R,ugm-3,,,,1.900,R,ugm-3 (TEOM FDMS)
07-01-2018,03:00,1.100,R,ugm-3 (TEOM FDMS),0.100,R,ugm-3 (TEOM FDMS),9.65943,R,ugm-3,,,,1.000,R,ugm-3 (TEOM FDMS)
07-01-2018,04:00,0.400,R,ugm-3 (TEOM FDMS),1.200,R,ugm-3 (TEOM FDMS),10.34189,R,ugm-3,,,,-0.800,R,ugm-3 (TEOM FDMS)
07-01-2018,05:00,2.800,R,ugm-3 (TEOM FDMS),4.100,R,ugm-3 (TEOM FDMS),10.70937,R,ugm-3,,,,-1.300,R,ugm-3 (TEOM FDMS)
07-01-2018,06:00,3.600,R,ugm-3 (TEOM FDMS),1.700,R,ugm-3 (TEOM FDMS),10.86686,R,ugm-3,,,,1.900,R,ugm-3 (TEOM FDMS)
07-01-2018,07:00,0.500,R,ugm-3 (TEOM FDMS),1.500,R,ugm-3 (TEOM FDMS),10.39438,R,ugm-3,,,,-1.000,R,ugm-3 (TEOM FDMS)
07-01-2018,08:00,0.000,R,ugm-3 (TEOM FDMS),1.200,R,ugm-3 (TEOM FDMS),9.55443,R,ugm-3,,,,-1.200,R,ugm-3 (TEOM FDMS)
07-01-2018,09:00,3.000,R,ugm-3 (TEOM FDMS),2.100,R,ugm-3 (TEOM FDMS),10.49938,R,ugm-3,,,,0.900,R,ugm-3 (TEOM FDMS)
07-01-2018,10:00,3.100,R,ugm-3 (TEOM FDMS),4.000,R,ugm-3 (TEOM FDMS),9.92191,R,ugm-3,,,,-0.900,R,ugm-3 (TEOM FDMS)
07-01-2018,11:00,2.000,R,ugm-3 (TEOM FDMS),3.500,R,ugm-3 (TEOM FDMS),9.34445,R,ugm-3,,,,-1.500,R,ugm-3 (TEOM FDMS)
07-01-2018,12:00,4.700,R,ugm-3 (TEOM FDMS),5.400,R,ugm-3 (TEOM FDMS),,,,,,,-0.700,R,ugm-3 (TEOM FDMS)
07-01-2018,13:00,,,,,,,,,,,,,,,
07-01-2018,14:00,5.200,R,ugm-3 (TEOM FDMS),7.400,R,ugm-3 (TEOM FDMS),48.29714,R,ugm-3,,,,-2.200,R,ugm-3 (TEOM FDMS)
07-01-2018,15:00,8.200,R,ugm-3 (TEOM FDMS),9.200,R,ugm-3 (TEOM FDMS),40.68509,R,ugm-3,,,,-1.000,R,ugm-3 (TEOM FDMS)
07-01-2018,16:00,10.000,R,ugm-3 (TEOM FDMS),9.400,R,ugm-3 (TEOM FDMS),25.56599,R,ugm-3,,,,0.600,R,ugm-3 (TEOM FDMS)
07-01-2018,17:00,8.300,R,ugm-3 (TEOM FDMS),7.400,R,ugm-3 (TEOM FDMS),12.65175,R,ugm-3,,,,0.900,R,ugm-3 (TEOM FDMS)
07-01-2018,18:00,21.900,R,ugm-3 (TEOM FDMS),19.300,R,ugm-3 (TEOM FDMS),5.98465,R,ugm-3,,,,2.600,R,ugm-3 (TEOM FDMS)
07-01-2018,19:00,10.900,R,ugm-3 (TEOM FDMS),8.300,R,ugm-3 (TEOM FDMS),3.56979,R,ugm-3,,,,2.600,R,ugm-3 (TEOM FDMS)
07-01-2018,20:00,10.100,R,ugm-3 (TEOM FDMS),8.600,R,ugm-3 (TEOM FDMS),15.22410,R,ugm-3,,,,1.500,R,ugm-3 (TEOM FDMS)
07-01-2018,21:00,17.000,R,ugm-3 (TEOM FDMS),15.300,R,ugm-3 (TEOM FDMS),10.81436,R,ugm-3,,,,1.700,R,ugm-3 (TEOM FDMS)
07-01-2018,22:00,23.000,R,ugm-3 (TEOM FDMS),22.100,R,ugm-3 (TEOM FDMS),21.73371,R,ugm-3,,,,0.900,R,ugm-3 (TEOM FDMS)
07-01-2018,23:00,11.200,R,ugm-3 (TEOM FDMS),12.300,R,ugm-3 (TEOM FDMS),38.53272,R,ugm-3,,,,-1.100,R,ugm-3 (TEOM FDMS)
07-01-2018,24:00,13.800,R,ugm-3 (TEOM FDMS),12.000,R,ugm-3 (TEOM FDMS),35.75038,R,ugm-3,,,,1.800,R,ugm-3 (TEOM FDMS)
08-01-2018,01:00,11.000,R,ugm-3 (TEOM FDMS),7.500,R,ugm-3 (TEOM FDMS),18.89888,R,ugm-3,,,,3.500,R,ugm-3 (TEOM FDMS)
08-01-2018,02:00,8.600,R,ugm-3 (TEOM FDMS),6.500,R,ugm-3 (TEOM FDMS),27.36838,R,ugm-3,,,,2.100,R,ugm-3 (TEOM FDMS)
08-01-2018,03:00,10.100,R,ugm-3 (TEOM FDMS),8.600,R,ugm-3 (TEOM FDMS),31.39314,R,ugm-3,,,,1.500,R,ugm-3 (TEOM FDMS)
08-01-2018,04:00,7.500,R,ugm-3 (TEOM FDMS),6.600,R,ugm-3 (TEOM FDMS),35.38290,R,ugm-3,,,,0.900,R,ugm-3 (TEOM FDMS)
08-01-2018,05:00,9.800,R,ugm-3 (TEOM FDMS),8.900,R,ugm-3 (TEOM FDMS),33.17803,R,ugm-3,,,,0.900,R,ugm-3 (TEOM FDMS)
08-01-2018,06:00,6.100,R,ugm-3 (TEOM FDMS),3.300,R,ugm-3 (TEOM FDMS),11.91679,R,ugm-3,,,,2.800,R,ugm-3 (TEOM FDMS)
08-01-2018,07:00,9.900,R,ugm-3 (TEOM FDMS),9.000,R,ugm-3 (TEOM FDMS),29.29326,R,ugm-3,,,,0.900,R,ugm-3 (TEOM FDMS)
08-01-2018,08:00,7.100,R,ugm-3 (TEOM FDMS),5.600,R,ugm-3 (TEOM FDMS),23.41361,R,ugm-3,,,,1.500,R,ugm-3 (TEOM FDMS)
08-01-2018,09:00,6.600,R,ugm-3 (TEOM FDMS),8.900,R,ugm-3 (TEOM FDMS),38.95269,R,ugm-3,,,,-2.300,R,ugm-3 (TEOM FDMS)
08-01-2018,10:00,9.500,R,ugm-3 (TEOM FDMS),7.200,R,ugm-3 (TEOM FDMS),38.37523,R,ugm-3,,,,2.300,R,ugm-3 (TEOM FDMS)
08-01-2018,11:00,7.000,R,ugm-3 (TEOM FDMS),7.700,R,ugm-3 (TEOM FDMS),42.88996,R,ugm-3,,,,-0.700,R,ugm-3 (TEOM FDMS)
08-01-2018,12:00,10.700,R,ugm-3 (TEOM FDMS),11.800,R,ugm-3 (TEOM FDMS),45.93478,R,ugm-3,,,,-1.100,R,ugm-3 (TEOM FDMS)
08-01-2018,13:00,9.800,R,ugm-3 (TEOM FDMS),10.600,R,ugm-3 (TEOM FDMS),44.62236,R,ugm-3,,,,-0.800,R,ugm-3 (TEOM FDMS)
08-01-2018,14:00,12.500,R,ugm-3 (TEOM FDMS),8.100,R,ugm-3 (TEOM FDMS),53.28434,R,ugm-3,,,,4.400,R,ugm-3 (TEOM FDMS)
08-01-2018,15:00,9.700,R,ugm-3 (TEOM FDMS),8.900,R,ugm-3 (TEOM FDMS),56.69664,R,ugm-3,,,,0.800,R,ugm-3 (TEOM FDMS)
08-01-2018,16:00,11.800,R,ugm-3 (TEOM FDMS),11.600,R,ugm-3 (TEOM FDMS),59.79396,R,ugm-3,,,,0.200,R,ugm-3 (TEOM FDMS)
08-01-2018,17:00,10.300,R,ugm-3 (TEOM FDMS),9.100,R,ugm-3 (TEOM FDMS),49.55706,R,ugm-3,,,,1.200,R,ugm-3 (TEOM FDMS)
08-01-2018,18:00,7.900,R,ugm-3 (TEOM FDMS),4.400,R,ugm-3 (TEOM FDMS),25.40849,R,ugm-3,,,,3.500,R,ugm-3 (TEOM FDMS)
08-01-2018,19:00,11.900,R,ugm-3 (TEOM FDMS),10.100,R,ugm-3 (TEOM FDMS),37.11530,R,ugm-3,,,,1.800,R,ugm-3 (TEOM FDMS)
08-01-2018,20:00,14.100,R,ugm-3 (TEOM FDMS),12.100,R,ugm-3 (TEOM FDMS),45.14732,R,ugm-3,,,,2.000,R,ugm-3 (TEOM FDMS)
08-01-2018,21:00,13.800,R,ugm-3 (TEOM FDMS),11.000,R,ugm-3 (TEOM FDMS),47.71967,R,ugm-3,,,,2.800,R,ugm-3 (TEOM FDMS)
08-01-2018,22:00,14.200,R,ugm-3 (TEOM FDMS),12.100,R,ugm-3 (TEOM FDMS),48.50713,R,ugm-3,,,,2.100,R,ugm-3 (TEOM FDMS)
08-01-2018,23:00,14.900,R,ugm-3 (TEOM FDMS),11.900,R,ugm-3 (TEOM FDMS),46.77473,R,ugm-3,,,,3.000,R,ugm-3 (TEOM FDMS)
08-01-2018,24:00,18.400,R,ugm-3 (TEOM FDMS),14.200,R,ugm-3 (TEOM FDMS),45.56730,R,ugm-3,,,,4.200,R,ugm-3 (TEOM FDMS)
09-01-2018,01:00,14.700,R,ugm-3 (TEOM FDMS),10.600,R,ugm-3 (TEOM FDMS),42.97745,R,ugm-3,,,,4.100,R,ugm-3 (TEOM FDMS)
09-01-2018,02:00,14.700,R,ugm-3 (TEOM FDMS),11.200,R,ugm-3 (TEOM FDMS),35.48790,R,ugm-3,,,,3.500,R,ugm-3 (TEOM FDMS)
09-01-2018,03:00,15.400,R,ugm-3 (TEOM FDMS),9.800,R,ugm-3 (TEOM FDMS),38.53272,R,ugm-3,,,,5.600,R,ugm-3 (TEOM FDMS)
09-01-2018,04:00,11.900,R,ugm-3 (TEOM FDMS),7.800,R,ugm-3 (TEOM FDMS),41.42005,R,ugm-3,,,,4.100,R,ugm-3 (TEOM FDMS)
09-01-2018,05:00,9.600,R,ugm-3 (TEOM FDMS),5.900,R,ugm-3 (TEOM FDMS),32.44308,R,ugm-3,,,,3.700,R,ugm-3 (TEOM FDMS)
09-01-2018,06:00,13.300,R,ugm-3 (TEOM FDMS),6.400,R,ugm-3 (TEOM FDMS),31.44564,R,ugm-3,,,,6.900,R,ugm-3 (TEOM FDMS)
09-01-2018,07:00,13.200,R,ugm-3 (TEOM FDMS),7.500,R,ugm-3 (TEOM FDMS),28.55831,R,ugm-3,,,,5.700,R,ugm-3 (TEOM FDMS)
09-01-2018,08:00,14.400,R,ugm-3 (TEOM FDMS),10.200,R,ugm-3 (TEOM FDMS),25.77597,R,ugm-3,,,,4.200,R,ugm-3 (TEOM FDMS)
09-01-2018,09:00,18.800,R,ugm-3 (TEOM FDMS),14.200,R,ugm-3 (TEOM FDMS),19.00387,R,ugm-3,,,,4.600,R,ugm-3 (TEOM FDMS)
09-01-2018,10:00,15.000,R,ugm-3 (TEOM FDMS),12.000,R,ugm-3 (TEOM FDMS),17.53396,R,ugm-3,,,,3.000,R,ugm-3 (TEOM FDMS)
09-01-2018,11:00,17.600,R,ugm-3 (TEOM FDMS),11.800,R,ugm-3 (TEOM FDMS),20.73627,R,ugm-3,,,,5.800,R,ugm-3 (TEOM FDMS)
09-01-2018,12:00,13.900,R,ugm-3 (TEOM FDMS),8.400,R,ugm-3 (TEOM FDMS),21.41873,R,ugm-3,,,,5.500,R,ugm-3 (TEOM FDMS)
09-01-2018,13:00,13.300,R,ugm-3 (TEOM FDMS),7.500,R,ugm-3 (TEOM FDMS),18.58390,R,ugm-3,,,,5.800,R,ugm-3 (TEOM FDMS)
09-01-2018,14:00,9.600,R,ugm-3 (TEOM FDMS),6.100,R,ugm-3 (TEOM FDMS),18.37391,R,ugm-3,,,,3.500,R,ugm-3 (TEOM FDMS)
09-01-2018,15:00,9.100,R,ugm-3 (TEOM FDMS),3.000,R,ugm-3 (TEOM FDMS),19.00387,R,ugm-3,,,,6.100,R,ugm-3 (TEOM FDMS)